Location: Burleson Alternative School
(32.5290°N, 97.3406°W)
Time: 03:49:55
(UTC+00:00)

Courier 1B Rocket - Pass Details

Date: 14 November 2024
Orbit: 920 x 1201 km, 28.2° (Epoch: 03 December)

Event Time Altitude Azimuth Distance (km) Brightness Sun altitude
Rises 01:38:53 0° 271° (W) 3,617 9.3 -27.3°
Reaches altitude 10° 01:41:39 10° 265° (W) 2,644 8.2 -27.9°
Maximum altitude 01:47:36 44° 194° (SSW) 1,244 5.6 -29.2°
Enters shadow 01:48:18 42° 176° (S) 1,273 5.5 -29.3°
